KB1KVS Weather Reports


Display with metric or nautical units.
time (UTC)temp
F
wind
direction
speed
MPH
gust
MPH
rain 1hr
in
rain 24hr
in
rain mn
in
humidity
%
barometer
mb
20211026235519 55 113 12.0 26.0 0.07 0.87 0.87 94
20211026234520 55 68 14.0 26.0 0.08 0.86 0.86 94
20211026233520 55 90 14.0 30.0 0.09 0.86 0.86 94
20211026232520 55 90 10.0 28.0 0.09 0.85 0.85 95
20211026231519 55 90 13.0 27.0 0.09 0.84 0.84 94
20211026230520 56 90 12.0 29.0 0.07 0.81 0.81 94
20211026225520 56 113 14.0 30.0 0.08 0.80 0.80 95
20211026224519 56 113 13.0 34.0 0.08 0.78 0.78 95
20211026223519 56 113 12.0 32.0 0.07 0.77 0.77 95
20211026222519 56 90 14.0 30.0 0.07 0.76 0.76 95
20211026221519 56 113 13.0 25.0 0.08 0.75 0.75 95
20211026220519 56 90 14.0 27.0 0.08 0.74 0.74 95
20211026215522 56 113 14.0 30.0 0.07 0.72 0.72 95
20211026214519 57 113 14.0 33.0 0.06 0.70 0.70 95
20211026213520 57 113 12.0 24.0 0.06 0.70 0.70 95
20211026212519 57 113 13.0 27.0 0.06 0.69 0.69 95
20211026211519 57 113 14.0 30.0 0.07 0.67 0.67 95
20211026210519 58 113 12.0 27.0 0.06 0.66 0.66 95
20211026205519 58 113 12.0 24.0 0.06 0.65 0.65 95
20211026204519 58 113 12.0 28.0 0.06 0.64 0.64 95
20211026203519 58 113 9.0 19.0 0.06 0.64 0.64 95
20211026202519 58 113 12.0 22.0 0.05 0.63 0.63 94
20211026201519 58 113 11.0 23.0 0.02 0.60 0.60 94
20211026200519 59 113 9.0 19.0 0.02 0.60 0.60 94
20211026195519 59 113 11.0 18.0 0.01 0.59 0.59 94
20211026194519 59 113 9.0 20.0 0.00 0.58 0.58 94
20211026193519 59 113 12.0 23.0 0.01 0.58 0.58 93
20211026192519 60 113 14.0 23.0 0.01 0.58 0.58 93
20211026191519 60 113 12.0 23.0 0.02 0.58 0.58 93
20211026190519 60 113 14.0 19.0 0.02 0.58 0.58 93
20211026185519 60 113 14.0 21.0 0.02 0.58 0.58 92
20211026184519 60 113 14.0 24.0 0.02 0.58 0.58 92
20211026183520 60 113 15.0 24.0 0.01 0.57 0.57 91
20211026182519 60 113 17.0 23.0 0.01 0.57 0.57 92
20211026181519 61 113 16.0 25.0 0.00 0.56 0.56 91
20211026180519 61 135 17.0 30.0 0.00 0.56 0.56 90
20211026175519 61 135 13.0 24.0 0.00 0.56 0.56 91
20211026174519 61 113 16.0 27.0 0.00 0.56 0.56 91
20211026173519 61 113 14.0 26.0 0.00 0.56 0.56 91
20211026172520 61 135 15.0 25.0 0.00 0.56 0.56 90
20211026171519 62 113 15.0 27.0 0.00 0.56 0.56 90
20211026170519 61 113 14.0 25.0 0.00 0.56 0.56 91
20211026165520 61 135 14.0 27.0 0.00 0.56 0.56 91
20211026164519 61 135 12.0 24.0 0.00 0.56 0.56 91
20211026163519 62 135 13.0 24.0 0.00 0.56 0.56 92
20211026162519 62 135 14.0 23.0 0.00 0.56 0.56 93
20211026161519 62 113 12.0 25.0 0.00 0.56 0.56 93
20211026160519 62 113 12.0 24.0 0.00 0.56 0.56 93
20211026155519 62 113 13.0 24.0 0.00 0.56 0.56 93
20211026154519 62 135 15.0 28.0 0.00 0.56 0.56 94
20211026153519 62 113 13.0 26.0 0.00 0.56 0.56 95
20211026152520 62 135 12.0 21.0 0.00 0.57 0.56 95
20211026151519 61 113 13.0 24.0 0.00 0.58 0.56 95
20211026150519 61 135 12.0 22.0 0.00 0.58 0.56 95
20211026145519 61 135 13.0 22.0 0.00 0.58 0.56 95
20211026144519 61 135 14.0 24.0 0.00 0.58 0.56 96
20211026143519 61 135 12.0 22.0 0.00 0.58 0.56 96
20211026142519 61 113 14.0 26.0 0.00 0.59 0.56 96
20211026141519 61 135 12.0 28.0 0.00 0.59 0.56 96
20211026140519 61 113 15.0 26.0 0.00 0.59 0.56 96
20211026135519 61 113 14.0 25.0 0.00 0.59 0.56 97
20211026134519 61 113 12.0 22.0 0.00 0.59 0.56 97
20211026133518 60 135 13.0 21.0 0.03 0.59 0.56 97
20211026132519 60 135 10.0 19.0 0.06 0.59 0.56 97
20211026131519 59 113 11.0 20.0 0.10 0.59 0.56 97
20211026130519 58 113 8.0 16.0 0.12 0.59 0.56 97
20211026125518 58 113 11.0 20.0 0.15 0.60 0.56 97
20211026124519 58 113 10.0 15.0 0.16 0.60 0.56 97
20211026123518 58 135 9.0 15.0 0.13 0.57 0.53 97
20211026122519 57 113 8.0 16.0 0.10 0.54 0.50 97
20211026121518 57 90 10.0 18.0 0.06 0.50 0.46 97
20211026120518 57 113 10.0 19.0 0.04 0.48 0.45 97
20211026115519 57 135 10.0 17.0 0.01 0.46 0.41 97
20211026114518 57 113 8.0 13.0 0.00 0.46 0.40 97
20211026113519 57 113 9.0 15.0 0.00 0.47 0.40 97
20211026112519 57 113 9.0 17.0 0.00 0.50 0.40 97
20211026111518 57 113 10.0 18.0 0.00 0.53 0.40 97
20211026110518 57 113 6.0 12.0 0.00 0.56 0.40 97
20211026105518 56 90 8.0 19.0 0.01 0.59 0.40 97
20211026104518 56 90 8.0 16.0 0.12 0.60 0.40 97
20211026103518 56 90 8.0 17.0 0.16 0.60 0.40 97
20211026102518 56 90 12.0 24.0 0.16 0.61 0.40 97
20211026101518 56 90 10.0 21.0 0.17 0.62 0.40 97
20211026100518 56 90 11.0 21.0 0.17 0.63 0.40 97
20211026095519 56 113 10.0 15.0 0.16 0.62 0.39 96
20211026094518 56 113 12.0 21.0 0.05 0.52 0.28 96
20211026093518 56 113 10.0 20.0 0.01 0.49 0.24 96
20211026092519 56 90 9.0 16.0 0.02 0.50 0.24 96
20211026091518 56 113 11.0 19.0 0.08 0.50 0.23 96
20211026090518 56 135 10.0 21.0 0.09 0.51 0.23 96
20211026085519 56 113 9.0 27.0 0.09 0.52 0.23 96
20211026084518 56 113 8.0 20.0 0.09 0.53 0.23 96
20211026083518 56 68 9.0 19.0 0.09 0.53 0.23 96
20211026082519 56 113 9.0 15.0 0.08 0.52 0.22 96
20211026081518 56 113 8.0 26.0 0.01 0.45 0.15 96
20211026080518 56 90 9.0 21.0 0.00 0.44 0.14 96
20211026075518 56 68 7.0 14.0 0.00 0.44 0.14 96
20211026074518 56 68 9.0 16.0 0.01 0.44 0.14 96
20211026073518 56 68 8.0 16.0 0.02 0.44 0.14 96
20211026072520 56 68 9.0 15.0 0.03 0.44 0.14 96
20211026071520 56 68 9.0 21.0 0.04 0.44 0.14 96
20211026070521 56 68 6.0 18.0 0.04 0.44 0.14 96
20211026065520 56 113 9.0 22.0 0.04 0.44 0.14 96
20211026064520 56 113 8.0 15.0 0.04 0.43 0.13 96
20211026063520 56 90 9.0 14.0 0.04 0.42 0.12 96
20211026062520 55 68 8.0 17.0 0.05 0.42 0.11 96
20211026061520 55 68 7.0 13.0 0.06 0.41 0.10 96
20211026060520 55 68 9.0 17.0 0.08 0.42 0.10 96
20211026055520 55 68 9.0 18.0 0.09 0.42 0.10 96
20211026054520 55 68 9.0 16.0 0.09 0.41 0.09 96
20211026053520 55 90 9.0 24.0 0.08 0.40 0.08 96
20211026052520 55 90 10.0 22.0 0.06 0.38 0.06 96
20211026051520 55 90 8.0 16.0 0.04 0.36 0.04 96
20211026050520 55 90 7.0 12.0 0.02 0.34 0.02 96
20211026045521 55 113 8.0 21.0 0.01 0.33 0.01 96
20211026044520 55 90 8.0 21.0 0.00 0.32 0.00 96
20211026043521 55 113 8.0 14.0 0.00 0.32 0.00 96
20211026042521 55 113 8.0 13.0 0.00 0.32 0.00 96
20211026041520 55 113 8.0 15.0 0.00 0.32 0.00 96
20211026040520 55 113 9.0 17.0 0.00 0.32 0.00 96
20211026035520 55 113 6.0 14.0 0.00 0.32 0.00 96
20211026034520 55 113 8.0 12.0 0.00 0.32 0.00 96
20211026033520 55 113 8.0 15.0 0.00 0.32 0.00 96
20211026032520 55 113 8.0 13.0 0.00 0.32 0.00 96
20211026031519 55 68 8.0 17.0 0.00 0.32 0.00 96
20211026030520 55 113 6.0 14.0 0.00 0.32 0.00 96
20211026025520 55 90 7.0 14.0 0.00 0.32 0.00 96
20211026024520 55 113 8.0 16.0 0.00 0.32 0.00 96
20211026023520 55 90 8.0 14.0 0.00 0.32 0.00 96
20211026022520 55 113 8.0 16.0 0.00 0.32 0.00 96
20211026021520 55 113 8.0 18.0 0.00 0.32 0.00 96
20211026020519 54 90 7.0 15.0 0.00 0.32 0.00 96
20211026015519 54 90 7.0 13.0 0.00 0.32 0.00 96
20211026014520 54 113 7.0 15.0 0.00 0.32 0.00 96
20211026013519 54 90 6.0 14.0 0.00 0.32 0.00 96
20211026012519 54 113 7.0 16.0 0.00 0.32 0.00 96
20211026011519 54 68 9.0 15.0 0.00 0.32 0.00 96
20211026010520 54 113 7.0 14.0 0.00 0.32 0.00 96
20211026005519 55 90 7.0 12.0 0.00 0.32 0.00 96
20211026004519 55 68 7.0 12.0 0.00 0.32 0.00 96
20211026003519 55 68 5.0 11.0 0.00 0.32 0.00 96
20211026002520 55 113 5.0 11.0 0.00 0.32 0.00 96
20211026001519 54 113 7.0 11.0 0.00 0.32 0.00 96
20211026000519 54 113 6.0 11.0 0.00 0.32 0.00 96